Weather History for Atlantic City, NJ

Change the Weather History Date:

Saturday, January 19, 2013

  Actual Average Record
Temperature  
Mean Temperature 39 °F 33 °F  
Max Temperature 51 °F 41 °F 64 °F (1929)
Min Temperature 26 °F 24 °F -3 °F (1994)
Degree Days  
Heating Degree Days 26 32  
Month to date heating degree days 499 606  
Since 1 July heating degree days 2143 2375  
Cooling Degree Days 0 0  
Month to date cooling degree days 0 0  
Year to date cooling degree days 0 0  
Moisture  
Dew Point 23 °F    
Average Humidity 49    
Maximum Humidity 70    
Minimum Humidity 28    
Precipitation  
Precipitation 0.00 in 0.10 in 1.85 in (1936)
Month to date precipitation 1.69 2.01  
Year to date precipitation 1.69 2.01  
Snow  
Snow 0.00 in 0.20 in 8.00 in (1961)
Month to date snowfall 0.1 2.4  
Since 1 July snowfall 2.6 6.3  
Snow Depth 0.00 in    
Sea Level Pressure  
Sea Level Pressure 30.26 in    
Wind  
Wind Speed 12 mph (SSW)    
Max Wind Speed 22 mph    
Max Gust Speed 28 mph    
Visibility 10 miles    
Events      
T = Trace of Precipitation, MM = Missing Value Source: NWS Daily Summary

Daily Weather History Graph

Daily Weather History Graph

Search for Another Location

Airport:

Trip Planner

Search our weather history database for the weather conditions in past years. The results will help you decide how hot, cold, wet, or windy it might be!

Date:

Astronomy

Jan. 19, 2013 Rise Set
Actual Time 7:14 AM EST 5:03 PM EST
Civil Twilight 6:45 AM EST 5:32 PM EST
Nautical Twilight 6:12 AM EST 6:05 PM EST
Astronomical Twilight 5:40 AM EST 6:37 PM EST
Moon 11:28 AM EST (1/19) 12:47 AM EST (1/19)
Length of Visible Light 10h 47m
Length of Day
9h 48m
First Quarter, 57% of the Moon is Illuminated
Jan 19
First Quarter
Jan 26
Full
Feb 3
Last Quarter
Feb 10
New
Feb 17
First Quarter

Hourly Weather History & Observations

Time (EST) Temp. Windchill Dew Point Humidity Pressure Visibility Wind Dir Wind Speed Gust Speed Precip Events Conditions
12:54 AM 28.0 °F 20.0 °F 16.0 °F 61% 30.45 in 10.0 mi SSW 8.1 mph - N/A   Clear
1:54 AM 30.0 °F 21.7 °F 16.0 °F 56% 30.45 in 10.0 mi SSW 9.2 mph - N/A   Clear
2:54 AM 30.9 °F 23.5 °F 16.0 °F 54% 30.44 in 10.0 mi SSW 8.1 mph - N/A   Clear
3:54 AM 32.0 °F 23.6 °F 19.0 °F 59% 30.41 in 10.0 mi SSW 10.4 mph - N/A   Clear
4:54 AM 32.0 °F 23.6 °F 21.0 °F 64% 30.40 in 10.0 mi SSW 10.4 mph - N/A   Clear
5:54 AM 33.1 °F 24.9 °F 21.0 °F 61% 30.39 in 10.0 mi SSW 10.4 mph - N/A   Clear
6:54 AM 33.1 °F 24.9 °F 18.0 °F 54% 30.39 in 10.0 mi SSW 10.4 mph - N/A   Clear
7:54 AM 34.0 °F 25.5 °F 21.0 °F 59% 30.38 in 10.0 mi SSW 11.5 mph - N/A   Clear
8:54 AM 37.0 °F 28.5 °F 23.0 °F 57% 30.38 in 10.0 mi SSW 13.8 mph - N/A   Clear
9:54 AM 42.1 °F 34.9 °F 23.0 °F 47% 30.38 in 10.0 mi SW 13.8 mph 21.9 mph N/A   Clear
10:54 AM 44.1 °F 36.2 °F 21.0 °F 40% 30.34 in 10.0 mi SW 18.4 mph - N/A   Clear
11:54 AM 45.0 °F 37.4 °F 21.9 °F 40% 30.28 in 10.0 mi SSW 18.4 mph 24.2 mph N/A   Clear
12:54 PM 48.0 °F - 21.0 °F 34% 30.24 in 10.0 mi SW 15.0 mph 27.6 mph N/A   Clear
1:54 PM 50.0 °F - 19.0 °F 29% 30.21 in 10.0 mi SW 18.4 mph 28.8 mph N/A   Clear
2:54 PM 51.1 °F - 19.0 °F 28% 30.18 in 10.0 mi SW 12.7 mph - N/A   Clear
3:54 PM 51.1 °F - 21.0 °F 31% 30.16 in 10.0 mi SSW 15.0 mph 20.7 mph N/A   Clear
4:54 PM 46.0 °F 41.9 °F 32.0 °F 58% 30.14 in 10.0 mi South 8.1 mph - N/A   Clear
5:54 PM 43.0 °F 37.2 °F 33.1 °F 68% 30.13 in 10.0 mi SSW 10.4 mph - N/A   Clear
6:54 PM 42.1 °F 35.7 °F 33.1 °F 70% 30.12 in 10.0 mi South 11.5 mph - N/A   Clear
7:54 PM 41.0 °F 35.8 °F 32.0 °F 70% 30.12 in 10.0 mi SSW 8.1 mph - N/A   Clear
8:54 PM 39.9 °F 35.1 °F 30.9 °F 70% 30.09 in 10.0 mi South 6.9 mph - N/A   Clear
9:54 PM 41.0 °F 35.2 °F 28.0 °F 60% 30.07 in 10.0 mi SSW 9.2 mph - N/A   Clear
10:54 PM 43.0 °F 36.0 °F 26.1 °F 51% 30.04 in 10.0 mi SSW 13.8 mph - N/A   Clear
11:54 PM 43.0 °F 36.0 °F 27.0 °F 53% 30.01 in 10.0 mi SW 13.8 mph - N/A   Clear